Location: Unspecified
(0.0000°N, 0.0000°E)
Time: 11:59:45
(UTC+00:00)

Vanguard 1 - Pass Details

Date: 13 December 2018
Orbit: 652 x 3832 km, 34.2° (Epoch: 25 March)

Event Time Altitude Azimuth Distance (km) Brightness Sun altitude
Rises 20:45:08 0° 239° (WSW) 7,874 15.6 -38.6°
Reaches altitude 10° 20:56:04 10° 216° (SW) 6,372 14.8 -40.9°
Maximum altitude 21:04:15 14° 191° (S) 5,474 14.2 -42.6°
Drops below altitude 10° 21:11:00 10° 165° (SSE) 5,147 13.8 -44.1°
Sets 21:17:39 0° 140° (SE) 5,419 13.8 -45.4°
